Weather in Auliyekol

Kazakhstan     52°21′49″N   64°08′07″E
temp.,
°C
wind,
m/s
gust,
m/s
humid.,
%
clouds,
%
prec.,
mm/h
press.,
hPa
HPBL,
m
17 april, sat
sat1723:00+10ne711881 0.0 1022360
02:00+7ne599380 0.0 1022258
05:00+6ne489384 0.0 1024177
08:00+8ene46846 0.0 1024258
11:00+12ene446928 0.0 1024606
14:00+15ene335813 0.0 1023874
17:00+16ne115314 0.0 10221218
20:00+12ne33693 0.0 102132
18 april, sun
sun1823:00+10se23755 0.0 102019
02:00+9ssw34810 0.0 101841
05:00+8wsw33845 0.0 101831
08:00+11wsw47735 0.0 1017230
11:00+16wnw45532 0.0 1015913
14:00+16n775843 0.2 10151249
17:00+13n78418 0.3 10171232
20:00+6ne1014735 0.0 1020697
19 april, mon
mon1923:00+3ne913575 0.0 1023824
02:00+1ne812575 0.0 1026832
05:00−1ne8115872 0.0 1028892
08:00−1ne9114756 0.0 10301066
11:00+1ne9103324 0.0 10301365
14:00+3ne992921 0.0 10301554
17:00+2ne892997 0.0 10311630
20:000ne81139100 0.0 1032665
20 april, tue
tue2023:00−2ne610430 0.0 1034741
02:00−2ne58440 0.0 1034692
05:00−3nne47520 0.0 1036309
08:00−1ne59360 0.0 10361330
11:00+1ne68290 0.0 10371508
14:00+3ne56300 0.0 10361526
17:00+5nne35295 0.0 10351600
20:00+2n11450 0.0 103511
21 april, wed
wed2123:00+1wnw33470 0.0 103521
02:00+1w46500 0.0 103591
05:000w510540 0.0 1035175
08:00+4wnw710430 0.0 1036361
11:00+9nw67370 0.0 10351082
14:00+11nw66340 0.0 10341494
17:00+12nw56345 0.0 10341576
20:00+8wnw33480 0.0 103532